Time,TemperatureF,DewpointF,PressureIn,WindDirection,WindDirectionDegrees,WindSpeedMPH,WindSpeedGustMPH,Humidity,HourlyPrecipIn,Conditions,Clouds,dailyrainin,SoftwareType,DateUTC
2013-01-30 00:01:00,44.0,43.0,30.33,SSW,203,7.0,16.0,95,0.05,,,0.22,,2013-01-30 08:01:00,
2013-01-30 00:11:00,44.0,43.0,30.33,SSW,203,7.0,16.0,95,0.05,,,0.22,,2013-01-30 08:11:00,
2013-01-30 00:21:00,44.0,43.0,30.32,SE,141,8.0,12.0,96,0.03,,,0.19,,2013-01-30 08:21:00,
2013-01-30 00:31:00,44.0,43.0,30.32,SE,141,8.0,12.0,96,0.03,,,0.19,,2013-01-30 08:31:00,
2013-01-30 00:42:00,44.0,43.0,30.32,SE,141,8.0,12.0,96,0.03,,,0.19,,2013-01-30 08:42:00,
2013-01-30 00:52:00,44.0,43.0,30.32,SSE,148,5.0,10.0,96,0.00,,,0.19,,2013-01-30 08:52:00,
2013-01-30 01:01:00,44.0,43.0,30.32,SSE,148,5.0,10.0,96,0.00,,,0.19,,2013-01-30 09:01:00,
2013-01-30 01:11:00,44.0,43.0,30.32,SSE,148,5.0,10.0,96,0.00,,,0.19,,2013-01-30 09:11:00,
2013-01-30 01:21:00,44.0,43.0,30.32,South,172,8.0,15.0,95,0.00,,,0.18,,2013-01-30 09:21:00,
2013-01-30 01:31:00,44.0,43.0,30.32,South,172,8.0,15.0,95,0.00,,,0.18,,2013-01-30 09:31:00,
2013-01-30 01:42:00,44.0,43.0,30.32,South,172,8.0,15.0,95,0.00,,,0.18,,2013-01-30 09:42:00,
2013-01-30 01:52:00,45.0,44.0,30.32,SSE,167,6.0,13.0,95,0.00,,,0.18,,2013-01-30 09:52:00,
2013-01-30 02:01:00,45.0,44.0,30.32,SSE,167,6.0,13.0,95,0.00,,,0.18,,2013-01-30 10:01:00,
2013-01-30 02:11:00,45.0,44.0,30.32,SSE,167,6.0,13.0,95,0.00,,,0.18,,2013-01-30 10:11:00,
2013-01-30 02:21:00,45.0,44.0,30.32,SSE,167,7.0,13.0,95,0.00,,,0.17,,2013-01-30 10:21:00,
2013-01-30 02:31:00,45.0,44.0,30.32,SSE,167,7.0,13.0,95,0.00,,,0.17,,2013-01-30 10:31:00,
2013-01-30 02:42:00,45.0,44.0,30.32,SSE,167,7.0,13.0,95,0.00,,,0.17,,2013-01-30 10:42:00,
2013-01-30 02:52:00,45.0,44.0,30.33,SSE,153,6.0,11.0,96,0.01,,,0.18,,2013-01-30 10:52:00,
2013-01-30 03:01:00,45.0,44.0,30.33,SSE,153,6.0,11.0,96,0.01,,,0.18,,2013-01-30 11:01:00,
2013-01-30 03:11:00,45.0,44.0,30.33,SSE,153,6.0,11.0,96,0.01,,,0.18,,2013-01-30 11:11:00,
2013-01-30 03:21:00,45.0,44.0,30.33,SW,219,5.0,11.0,96,0.01,,,0.18,,2013-01-30 11:21:00,
2013-01-30 03:32:00,45.0,44.0,30.33,SW,219,5.0,11.0,96,0.01,,,0.18,,2013-01-30 11:32:00,
2013-01-30 03:42:00,45.0,44.0,30.33,SW,219,5.0,11.0,96,0.01,,,0.18,,2013-01-30 11:42:00,
2013-01-30 03:52:00,45.0,44.0,30.33,SW,214,4.0,12.0,96,0.00,,,0.18,,2013-01-30 11:52:00,
2013-01-30 04:01:00,45.0,44.0,30.33,SW,214,4.0,12.0,96,0.00,,,0.18,,2013-01-30 12:01:00,
2013-01-30 04:12:00,45.0,44.0,30.33,SW,214,4.0,12.0,96,0.00,,,0.18,,2013-01-30 12:12:00,
2013-01-30 04:22:00,45.0,44.0,30.33,South,191,6.0,12.0,96,0.00,,,0.16,,2013-01-30 12:22:00,
2013-01-30 04:32:00,45.0,44.0,30.33,South,191,6.0,12.0,96,0.00,,,0.16,,2013-01-30 12:32:00,
2013-01-30 04:43:00,45.0,44.0,30.33,South,191,6.0,12.0,96,0.00,,,0.16,,2013-01-30 12:43:00,
2013-01-30 05:02:00,45.0,44.0,30.33,SSW,193,6.0,14.0,97,0.00,,,0.16,,2013-01-30 13:02:00,
2013-01-30 05:12:00,45.0,44.0,30.33,SSW,193,6.0,14.0,97,0.00,,,0.16,,2013-01-30 13:12:00,
2013-01-30 05:22:00,45.0,44.0,30.33,SSE,166,3.0,12.0,97,0.00,,,0.15,,2013-01-30 13:22:00,
2013-01-30 05:31:00,45.0,44.0,30.33,SSE,166,3.0,12.0,97,0.00,,,0.15,,2013-01-30 13:31:00,
2013-01-30 05:43:00,45.0,44.0,30.33,SSE,166,3.0,12.0,97,0.00,,,0.15,,2013-01-30 13:43:00,
2013-01-30 05:53:00,45.0,44.0,30.33,SSE,153,6.0,12.0,97,0.01,,,0.16,,2013-01-30 13:53:00,
2013-01-30 06:01:00,45.0,44.0,30.33,SSE,153,6.0,12.0,97,0.01,,,0.16,,2013-01-30 14:01:00,
2013-01-30 06:11:00,45.0,44.0,30.33,SSE,153,6.0,12.0,97,0.01,,,0.16,,2013-01-30 14:11:00,
2013-01-30 06:22:00,45.0,44.0,30.33,SSW,210,5.0,11.0,97,0.01,,,0.15,,2013-01-30 14:22:00,
2013-01-30 06:32:00,45.0,44.0,30.33,SSW,210,5.0,11.0,97,0.01,,,0.15,,2013-01-30 14:32:00,
2013-01-30 06:43:00,45.0,44.0,30.33,SSW,210,5.0,11.0,97,0.01,,,0.15,,2013-01-30 14:43:00,
2013-01-30 06:52:00,45.0,44.0,30.33,South,177,5.0,11.0,97,0.01,,,0.16,,2013-01-30 14:52:00,
2013-01-30 07:02:00,45.0,44.0,30.33,South,177,5.0,11.0,97,0.01,,,0.16,,2013-01-30 15:02:00,
2013-01-30 07:12:00,45.0,44.0,30.33,South,177,5.0,11.0,97,0.01,,,0.16,,2013-01-30 15:12:00,
2013-01-30 07:22:00,45.0,44.0,30.34,South,180,4.0,10.0,97,0.01,,,0.16,,2013-01-30 15:22:00,
2013-01-30 07:32:00,45.0,44.0,30.34,South,180,4.0,10.0,97,0.01,,,0.16,,2013-01-30 15:32:00,
2013-01-30 07:43:00,45.0,44.0,30.34,South,180,4.0,10.0,97,0.01,,,0.16,,2013-01-30 15:43:00,
2013-01-30 07:53:00,45.0,44.0,30.34,South,172,5.0,10.0,97,0.00,,,0.16,,2013-01-30 15:53:00,
2013-01-30 08:02:00,45.0,44.0,30.34,South,172,5.0,10.0,97,0.00,,,0.16,,2013-01-30 16:02:00,
2013-01-30 08:12:00,45.0,44.0,30.34,South,172,5.0,10.0,97,0.00,,,0.16,,2013-01-30 16:12:00,
2013-01-30 08:22:00,46.0,45.0,30.35,SSW,204,5.0,10.0,97,0.01,,,0.16,,2013-01-30 16:22:00,
2013-01-30 08:32:00,46.0,45.0,30.35,SSW,204,5.0,10.0,97,0.01,,,0.16,,2013-01-30 16:32:00,
2013-01-30 08:42:00,46.0,45.0,30.35,SSW,204,5.0,10.0,97,0.01,,,0.16,,2013-01-30 16:42:00,
2013-01-30 08:52:00,46.0,45.0,30.35,SSW,204,5.0,10.0,97,0.01,,,0.16,,2013-01-30 16:52:00,
2013-01-30 09:01:00,46.0,45.0,30.35,SW,215,3.0,11.0,97,0.01,,,0.16,,2013-01-30 17:01:00,
2013-01-30 09:12:00,46.0,45.0,30.35,SW,215,3.0,11.0,97,0.01,,,0.16,,2013-01-30 17:12:00,
2013-01-30 09:22:00,46.0,45.0,30.35,SW,219,5.0,10.0,97,0.00,,,0.16,,2013-01-30 17:22:00,
2013-01-30 09:32:00,46.0,45.0,30.35,SW,219,5.0,10.0,97,0.00,,,0.16,,2013-01-30 17:32:00,
2013-01-30 09:43:00,46.0,45.0,30.35,SW,219,5.0,10.0,97,0.00,,,0.16,,2013-01-30 17:43:00,
2013-01-30 09:53:00,46.0,45.0,30.36,SSW,195,5.0,10.0,98,0.00,,,0.16,,2013-01-30 17:53:00,
2013-01-30 10:01:00,46.0,45.0,30.36,SSW,195,5.0,10.0,98,0.00,,,0.16,,2013-01-30 18:01:00,
2013-01-30 10:12:00,46.0,45.0,30.36,SSW,195,5.0,10.0,98,0.00,,,0.16,,2013-01-30 18:12:00,
2013-01-30 10:22:00,46.0,45.0,30.37,South,180,4.0,7.0,98,0.00,,,0.16,,2013-01-30 18:22:00,
2013-01-30 10:32:00,46.0,45.0,30.37,South,180,4.0,7.0,98,0.00,,,0.16,,2013-01-30 18:32:00,
2013-01-30 10:43:00,46.0,45.0,30.37,South,180,4.0,7.0,98,0.00,,,0.16,,2013-01-30 18:43:00,
2013-01-30 10:52:00,46.0,45.0,30.37,South,181,5.0,11.0,98,0.01,,,0.17,,2013-01-30 18:52:00,
2013-01-30 11:02:00,46.0,45.0,30.37,South,181,5.0,11.0,98,0.01,,,0.17,,2013-01-30 19:02:00,
2013-01-30 11:12:00,46.0,45.0,30.37,South,181,5.0,11.0,98,0.01,,,0.17,,2013-01-30 19:12:00,
2013-01-30 11:21:00,46.0,45.0,30.38,SSW,196,3.0,8.0,98,0.01,,,0.17,,2013-01-30 19:21:00,
2013-01-30 11:32:00,46.0,45.0,30.38,SSW,196,3.0,8.0,98,0.01,,,0.17,,2013-01-30 19:32:00,
2013-01-30 11:43:00,46.0,45.0,30.38,SSW,196,3.0,8.0,98,0.01,,,0.17,,2013-01-30 19:43:00,
2013-01-30 11:52:00,46.0,45.0,30.37,SSE,162,4.0,9.0,97,0.00,,,0.17,,2013-01-30 19:52:00,
2013-01-30 12:02:00,46.0,45.0,30.37,SSE,162,4.0,9.0,97,0.00,,,0.17,,2013-01-30 20:02:00,
2013-01-30 12:11:00,46.0,45.0,30.37,SSE,162,4.0,9.0,97,0.00,,,0.17,,2013-01-30 20:11:00,
2013-01-30 12:21:00,46.0,45.0,30.37,SW,222,5.0,9.0,98,0.00,,,0.16,,2013-01-30 20:21:00,
2013-01-30 12:32:00,46.0,45.0,30.37,SW,222,5.0,9.0,98,0.00,,,0.16,,2013-01-30 20:32:00,
2013-01-30 12:42:00,46.0,45.0,30.37,SW,222,5.0,9.0,98,0.00,,,0.16,,2013-01-30 20:42:00,
2013-01-30 12:52:00,47.0,46.0,30.37,SSE,161,3.0,8.0,97,0.00,,,0.16,,2013-01-30 20:52:00,
2013-01-30 13:02:00,47.0,46.0,30.37,SSE,161,3.0,8.0,97,0.00,,,0.16,,2013-01-30 21:02:00,
2013-01-30 13:11:00,47.0,46.0,30.37,SSE,161,3.0,8.0,97,0.00,,,0.16,,2013-01-30 21:11:00,
2013-01-30 13:22:00,47.0,46.0,30.37,SSE,155,3.0,7.0,97,0.00,,,0.16,,2013-01-30 21:22:00,
2013-01-30 13:31:00,47.0,46.0,30.37,SSE,155,3.0,7.0,97,0.00,,,0.16,,2013-01-30 21:31:00,
2013-01-30 13:43:00,47.0,46.0,30.37,SSE,155,3.0,7.0,97,0.00,,,0.16,,2013-01-30 21:43:00,
2013-01-30 13:52:00,47.0,46.0,30.37,SE,146,4.0,8.0,97,0.01,,,0.17,,2013-01-30 21:52:00,
2013-01-30 14:02:00,47.0,46.0,30.37,SE,146,4.0,8.0,97,0.01,,,0.17,,2013-01-30 22:02:00,
2013-01-30 14:11:00,47.0,46.0,30.37,SE,146,4.0,8.0,97,0.01,,,0.17,,2013-01-30 22:11:00,
2013-01-30 14:21:00,47.0,46.0,30.36,SSW,193,4.0,8.0,97,0.01,,,0.17,,2013-01-30 22:21:00,
2013-01-30 14:31:00,47.0,46.0,30.36,SSW,193,4.0,8.0,97,0.01,,,0.17,,2013-01-30 22:31:00,
2013-01-30 14:42:00,47.0,46.0,30.36,SSW,193,4.0,8.0,97,0.01,,,0.17,,2013-01-30 22:42:00,
2013-01-30 14:52:00,47.0,46.0,30.36,South,169,4.0,8.0,97,0.00,,,0.17,,2013-01-30 22:52:00,
2013-01-30 15:01:00,47.0,46.0,30.36,South,169,4.0,8.0,97,0.00,,,0.17,,2013-01-30 23:01:00,
2013-01-30 15:11:00,47.0,46.0,30.36,South,169,4.0,8.0,97,0.00,,,0.17,,2013-01-30 23:11:00,
2013-01-30 15:22:00,47.0,46.0,30.35,SE,141,3.0,9.0,97,0.00,,,0.16,,2013-01-30 23:22:00,
2013-01-30 15:32:00,47.0,46.0,30.35,SE,141,3.0,9.0,97,0.00,,,0.16,,2013-01-30 23:32:00,
2013-01-30 15:42:00,47.0,46.0,30.35,SE,141,3.0,9.0,97,0.00,,,0.16,,2013-01-30 23:42:00,
2013-01-30 15:52:00,47.0,46.0,30.36,South,169,4.0,9.0,97,0.00,,,0.16,,2013-01-30 23:52:00,
2013-01-30 16:01:00,47.0,46.0,30.36,South,169,4.0,9.0,97,0.00,,,0.16,,2013-01-31 00:01:00,
2013-01-30 16:11:00,47.0,46.0,30.36,South,169,4.0,9.0,97,0.00,,,0.16,,2013-01-31 00:11:00,
2013-01-30 16:21:00,47.0,46.0,30.36,SSE,148,2.0,6.0,97,0.01,,,0.17,,2013-01-31 00:21:00,
2013-01-30 16:31:00,47.0,46.0,30.36,SSE,148,2.0,6.0,97,0.01,,,0.17,,2013-01-31 00:31:00,
2013-01-30 16:42:00,47.0,46.0,30.36,SSE,148,2.0,6.0,97,0.01,,,0.17,,2013-01-31 00:42:00,
2013-01-30 16:53:00,47.0,46.0,30.35,SE,134,4.0,6.0,97,0.01,,,0.17,,2013-01-31 00:53:00,
2013-01-30 17:01:00,47.0,46.0,30.35,SE,134,4.0,6.0,97,0.01,,,0.17,,2013-01-31 01:01:00,
2013-01-30 17:11:00,47.0,46.0,30.35,SE,134,4.0,6.0,97,0.01,,,0.17,,2013-01-31 01:11:00,
2013-01-30 17:21:00,47.0,46.0,30.35,SSE,165,1.0,7.0,97,0.00,,,0.17,,2013-01-31 01:21:00,
2013-01-30 17:31:00,47.0,46.0,30.35,SSE,165,1.0,7.0,97,0.00,,,0.17,,2013-01-31 01:31:00,
2013-01-30 17:42:00,47.0,46.0,30.35,SSE,165,1.0,7.0,97,0.00,,,0.17,,2013-01-31 01:42:00,
2013-01-30 17:52:00,47.0,46.0,30.35,SSE,148,2.0,7.0,97,0.00,,,0.17,,2013-01-31 01:52:00,
2013-01-30 18:01:00,47.0,46.0,30.35,SSE,148,2.0,7.0,97,0.00,,,0.17,,2013-01-31 02:01:00,
2013-01-30 18:11:00,47.0,46.0,30.35,SSE,148,2.0,7.0,97,0.00,,,0.17,,2013-01-31 02:11:00,
2013-01-30 18:21:00,47.0,46.0,30.35,South,176,2.0,5.0,97,0.00,,,0.17,,2013-01-31 02:21:00,
2013-01-30 18:31:00,47.0,46.0,30.35,South,176,2.0,5.0,97,0.00,,,0.17,,2013-01-31 02:31:00,
2013-01-30 18:42:00,47.0,46.0,30.35,South,176,2.0,5.0,97,0.00,,,0.17,,2013-01-31 02:42:00,
2013-01-30 18:52:00,47.0,46.0,30.35,South,176,2.0,5.0,97,0.00,,,0.17,,2013-01-31 02:52:00,
2013-01-30 19:01:00,47.0,46.0,30.35,South,173,2.0,6.0,97,0.00,,,0.17,,2013-01-31 03:01:00,
2013-01-30 19:11:00,47.0,46.0,30.35,South,173,2.0,6.0,97,0.00,,,0.17,,2013-01-31 03:11:00,
2013-01-30 19:21:00,47.0,46.0,30.35,SE,146,2.0,6.0,97,0.00,,,0.17,,2013-01-31 03:21:00,
2013-01-30 19:31:00,47.0,46.0,30.35,SE,146,2.0,6.0,97,0.00,,,0.17,,2013-01-31 03:31:00,
2013-01-30 19:42:00,47.0,46.0,30.35,SE,146,2.0,6.0,97,0.00,,,0.17,,2013-01-31 03:42:00,
2013-01-30 19:52:00,47.0,46.0,30.35,SSW,208,3.0,6.0,97,0.00,,,0.17,,2013-01-31 03:52:00,
2013-01-30 20:02:00,47.0,46.0,30.35,SSW,208,3.0,6.0,97,0.00,,,0.17,,2013-01-31 04:02:00,
2013-01-30 20:11:00,47.0,46.0,30.35,SSW,208,3.0,6.0,97,0.00,,,0.17,,2013-01-31 04:11:00,
2013-01-30 20:22:00,47.0,46.0,30.35,SSW,211,4.0,8.0,97,0.01,,,0.18,,2013-01-31 04:22:00,
2013-01-30 20:31:00,47.0,46.0,30.35,SSW,211,4.0,8.0,97,0.01,,,0.18,,2013-01-31 04:31:00,
2013-01-30 20:42:00,47.0,46.0,30.35,SSW,211,4.0,8.0,97,0.01,,,0.18,,2013-01-31 04:42:00,
2013-01-30 20:52:00,47.0,46.0,30.35,South,187,3.0,8.0,97,0.01,,,0.18,,2013-01-31 04:52:00,
2013-01-30 21:03:00,47.0,46.0,30.35,South,187,3.0,8.0,97,0.01,,,0.18,,2013-01-31 05:03:00,
2013-01-30 21:11:00,47.0,46.0,30.35,South,187,3.0,8.0,97,0.01,,,0.18,,2013-01-31 05:11:00,
2013-01-30 21:21:00,46.0,45.0,30.35,WSW,254,3.0,6.0,98,0.00,,,0.17,,2013-01-31 05:21:00,
2013-01-30 21:31:00,46.0,45.0,30.35,WSW,254,3.0,6.0,98,0.00,,,0.17,,2013-01-31 05:31:00,
2013-01-30 21:42:00,46.0,45.0,30.35,WSW,254,3.0,6.0,98,0.00,,,0.17,,2013-01-31 05:42:00,
2013-01-30 21:52:00,46.0,45.0,30.35,WSW,254,3.0,6.0,98,0.00,,,0.17,,2013-01-31 05:52:00,
2013-01-30 22:01:00,46.0,45.0,30.35,WSW,254,3.0,6.0,98,0.00,,,0.17,,2013-01-31 06:01:00,